Wind_Speed
10 12 13 12 12 13 13 12 11 10 10 9 7 6 7 6 7 7 9 11 11 11 11 12 14 14 14 14 14 14 13 13 13 12 11 11 10 10 9 9 9 8 7 6 6 5 4 3 2 1 1 3 3 3 4 5 5 6 5 3 4 4 5 7 7 9 13 14 14 16 16 16 17 15 15 16 16 16 15 15 15 16 17 18 17
11 10 11 10 11 12 11 10 9 9 10 10 9 9 8 6 8 9 9 11 12 13 13 13 14 15 15 16 16 16 15 16 16 14 14 14 13 12 12 12 11 11 10 9 7 7 6 4 4 3 2 1 2 2 4 5 5 7 6 5 6 7 6 9 10 10 13 15 16 17 16 16 16 15 15 17 18 17 17 18 17 17 17 17 17
12 11 10 9 10 12 11 11 11 11 12 11 9 9 10 9 8 10 12 11 10 12 13 14 16 16 17 17 17 17 17 17 17 17 16 16 15 15 15 13 13 13 12 10 10 9 8 6 5 5 4 2 1 2 3 4 4 5 6 7 8 9 8 9 10 11 13 15 16 16 16 16 16 17 17 18 18 18 19 19 18 17 17 17 18
12 13 10 8 9 11 10 10 12 13 15 14 12 12 14 14 12 12 12 13 13 12 13 14 15 17 19 19 18 18 18 18 18 18 18 17 17 17 16 15 14 14 13 11 11 10 9 8 7 6 6 4 2 2 2 2 3 4 6 7 8 9 9 8 9 11 13 15 15 16 17 18 18 18 18 18 18 18 18 18 18 18 17 17 17
11 12 12 9 8 8 8 8 10 11 14 15 14 14 15 15 15 15 15 14 14 14 16 18 18 19 20 21 21 20 19 19 18 18 17 17 17 17 16 16 15 15 14 12 12 11 10 9 8 7 6 5 3 3 2 2 3 4 5 7 8 10 11 11 12 13 14 16 18 18 18 19 19 19 18 19 19 19 18 17 17 18 18 18 19
9 8 8 9 7 5 4 4 4 6 8 10 12 14 16 17 18 20 19 17 15 17 22 23 22 20 20 20 22 22 21 20 19 19 17 16 17 17 15 15 16 15 14 13 13 12 11 9 8 8 7 6 5 4 3 3 3 4 5 7 8 10 11 12 12 13 15 17 18 18 19 19 20 20 18 17 19 20 19 19 19 19 19 19 19
10 8 8 8 7 5 3 2 3 3 4 4 6 10 12 15 18 21 22 21 20 23 26 25 22 22 22 22 22 22 21 20 18 19 19 18 18 18 17 16 16 16 15 14 13 12 12 10 9 9 8 6 6 5 5 4 4 5 6 7 8 9 10 11 12 13 15 17 18 18 19 18 19 20 19 17 18 19 19 19 19 17 16 16 16
10 9 9 9 7 6 5 4 4 3 3 4 5 7 10 12 14 17 20 22 24 26 26 25 23 21 21 22 22 21 21 21 19 17 17 18 20 20 19 18 17 16 15 14 13 12 12 11 9 9 8 8 9 9 7 6 7 8 8 7 7 8 10 11 11 13 14 16 17 18 18 19 18 19 19 17 16 16 16 17 19 19 19 19 20
9 8 9 8 5 5 5 4 4 3 3 4 5 7 9 11 12 15 18 21 24 25 25 24 23 20 19 22 24 23 23 23 21 19 19 20 22 21 20 19 18 16 15 14 13 12 12 10 10 10 10 11 12 11 9 9 9 9 9 8 8 8 9 10 11 12 14 15 16 17 17 17 17 18 18 17 17 18 19 21 23 23 24 24 24
7 6 6 6 3 2 2 2 1 2 2 2 3 4 6 9 12 14 16 19 20 21 22 22 22 21 21 23 25 27 26 24 23 23 23 24 24 22 20 19 17 16 15 14 13 12 11 10 11 12 13 13 13 12 12 10 8 8 9 8 8 9 9 10 11 12 13 14 15 16 16 17 17 17 18 18 19 21 21 20 20 21 21 21 21
5 4 4 4 2 1 1 1 1 1 2 2 2 3 4 5 7 9 11 13 14 15 17 18 19 20 21 23 25 27 27 26 25 24 24 25 26 23 20 19 17 16 15 14 13 13 12 11 11 13 14 14 13 13 11 9 9 10 9 7 8 9 10 12 13 14 14 15 15 16 16 16 17 17 18 20 19 19 19 19 19 19 18 16 15
4 4 3 2 1 1 1 0 2 2 2 2 3 4 4 4 6 7 8 9 10 11 13 15 16 17 18 19 21 23 25 25 25 23 21 23 26 24 20 18 17 16 15 14 13 13 12 12 11 11 12 12 12 10 9 10 12 11 9 9 9 11 12 14 16 17 17 16 16 16 17 18 19 19 19 20 20 20 20 21 20 19 19 17 15
4 4 3 1 1 1 0 2 3 2 2 3 4 4 5 6 7 7 8 9 9 10 11 13 14 16 16 16 17 18 21 23 24 23 21 22 25 23 19 17 17 16 14 13 13 12 11 12 11 9 9 9 10 10 10 12 12 10 8 9 10 12 14 16 18 20 21 21 21 19 18 18 19 19 19 19 21 23 21 19 17 18 19 19 19
4 3 2 1 1 1 2 2 3 3 3 4 5 6 7 8 8 8 8 9 10 11 12 13 14 15 16 16 15 16 18 19 21 23 24 24 26 23 18 16 16 15 13 13 13 12 10 10 9 8 8 9 10 10 10 9 9 7 7 8 10 13 15 17 19 20 22 24 26 26 24 23 23 24 24 23 23 21 17 15 16 19 22 24 27
3 3 2 2 2 2 3 3 3 3 4 5 6 7 7 8 9 9 9 10 12 13 13 14 15 16 16 16 16 16 16 16 18 22 25 26 27 23 16 14 15 14 12 13 13 12 10 9 9 9 10 11 11 12 11 11 11 11 11 12 14 16 16 17 19 20 20 22 25 27 27 27 27 26 24 22 21 20 20 21 22 23 26 29 30
3 3 3 3 3 4 4 3 3 4 5 6 6 7 8 8 9 9 10 11 12 13 14 14 15 15 15 15 15 15 14 14 17 21 24 26 26 22 17 14 15 14 11 11 11 10 9 9 10 11 12 12 12 13 13 14 15 15 15 16 17 18 18 18 18 18 20 21 22 24 25 26 26 26 25 25 26 27 29 29 27 26 26 27 27
6 5 5 5 5 5 5 5 5 6 6 7 7 8 8 8 9 10 11 12 13 13 14 15 15 15 14 13 14 14 13 15 18 20 23 25 25 21 18 16 15 12 10 9 9 9 9 10 11 11 11 11 12 13 14 16 18 18 18 18 18 18 19 19 19 19 19 20 22 23 24 25 25 26 28 30 31 31 31 29 25 23 23 21 20
7 6 6 6 6 5 5 6 7 7 7 8 9 9 9 10 11 11 12 14 14 14 14 14 15 14 12 10 11 13 14 16 19 21 23 24 22 18 15 14 12 9 8 7 8 9 10 11 11 12 12 13 14 15 16 17 16 15 15 16 17 19 20 20 20 19 18 19 19 20 21 22 23 23 24 25 26 28 30 30 26 22 21 19 18
8 8 8 8 7 7 7 7 8 9 9 10 10 10 10 11 12 13 14 15 15 14 14 14 13 10 9 8 9 12 14 17 20 21 22 22 19 15 11 10 9 8 8 8 8 8 8 9 9 11 13 15 15 15 15 14 14 13 13 15 17 19 20 19 19 19 20 22 23 24 25 26 26 27 26 24 22 22 24 27 27 24 22 21 20
10 11 11 10 10 10 9 9 10 11 11 11 11 11 11 12 13 14 14 14 15 15 13 10 6 4 4 6 8 9 12 17 20 21 20 19 17 14 10 8 7 7 6 6 5 5 5 8 10 10 11 13 13 12 12 12 13 14 16 17 19 20 21 22 23 24 26 27 28 28 28 28 27 27 27 26 25 24 24 25 26 26 25 23 21
12 12 12 12 12 12 12 12 12 12 12 12 12 11 12 13 14 15 15 15 14 11 6 3 5 6 5 6 7 8 13 19 21 20 19 18 16 14 11 8 6 5 4 3 3 4 5 9 10 8 8 9 9 9 12 14 16 19 20 20 20 20 21 23 23 23 24 24 24 23 22 22 22 22 22 22 22 23 24 25 25 26 26 26 24
14 14 14 14 15 14 14 14 13 13 13 13 13 13 13 14 15 15 15 13 7 3 4 6 7 7 6 7 8 12 17 22 22 21 19 17 14 11 8 6 3 3 3 4 6 7 8 10 10 6 6 9 11 13 17 19 20 20 19 17 17 18 18 19 21 21 20 20 20 19 19 18 18 19 19 20 20 21 22 23 23 24 25 27 27
16 16 16 16 16 15 15 15 15 15 15 15 15 15 14 14 15 15 14 9 4 6 6 7 9 9 9 9 11 16 21 23 22 20 18 14 10 7 6 4 4 5 6 8 8 8 8 9 9 7 9 13 16 18 18 17 15 14 13 14 15 16 17 19 21 20 19 18 18 19 18 18 18 18 19 19 20 20 21 21 22 22 23 24 25
17 17 18 18 17 17 17 17 16 16 16 16 16 15 14 15 15 13 10 6 5 7 7 8 9 10 12 12 15 19 22 21 18 16 14 12 8 6 5 4 4 4 5 6 6 7 8 10 11 13 16 18 18 16 14 12 11 11 12 14 16 17 18 20 20 19 18 18 18 19 18 18 19 19 19 20 21 21 22 23 24 24 24 24 24
19 19 19 18 18 18 18 17 17 17 17 16 15 14 14 12 10 7 5 5 5 6 7 9 10 11 13 14 17 21 22 19 16 13 11 9 6 5 3 2 1 1 3 4 5 7 9 11 13 17 19 18 15 13 12 10 10 12 14 15 16 17 19 19 18 18 18 18 18 19 20 20 21 21 22 23 23 23 23 24 24 25 26 27 27
20 19 19 19 19 18 17 17 17 15 15 14 14 14 12 7 4 4 6 7 7 7 8 10 11 13 14 15 17 19 20 18 15 12 10 8 6 5 3 2 1 2 4 6 6 7 9 12 15 16 16 14 13 14 14 12 12 12 14 15 16 16 16 16 16 17 18 19 19 20 21 21 22 23 23 23 23 23 23 23 23 23 24 25 26
20 19 18 18 18 17 18 17 16 15 14 14 13 11 6 4 5 7 8 8 8 8 11 12 13 14 15 16 16 18 18 17 14 12 10 7 4 3 2 2 2 3 4 5 8 10 12 13 13 12 11 12 12 13 13 12 12 13 14 15 15 15 16 17 17 18 20 21 21 21 22 22 22 22 21 21 22 22 21 22 23 23 23 23 23
20 19 19 19 18 18 17 16 16 16 14 12 9 5 3 5 6 7 7 8 9 12 15 16 16 17 17 18 18 18 16 15 13 12 10 7 4 4 4 2 1 1 3 7 10 11 10 9 8 8 11 12 12 12 11 11 13 14 15 16 17 17 18 19 19 19 20 21 22 22 23 23 22 22 22 22 22 21 21 21 22 23 23 22 22
22 20 19 19 19 19 18 18 18 15 8 4 5 6 9 9 8 7 8 9 11 14 17 17 16 18 19 19 19 18 16 15 14 12 10 8 6 5 4 2 1 3 5 8 9 8 7 8 9 10 12 13 13 14 15 15 16 16 16 17 17 18 18 19 20 21 22 23 23 24 24 24 23 23 24 24 24 24 23 23 23 23 22 22 21
22 21 21 21 20 20 20 19 17 12 8 11 12 11 10 10 9 8 8 10 11 14 17 18 19 20 19 17 17 18 18 16 13 10 8 6 4 3 2 3 4 7 8 7 8 9 8 10 11 11 13 15 15 15 15 15 16 16 17 17 19 19 20 21 22 23 23 23 23 24 24 24 24 24 24 24 25 25 25 24 25 24 23 22 21
22 21 21 20 20 21 19 13 10 11 13 14 15 16 15 14 12 10 9 11 13 15 17 19 21 22 20 18 17 17 16 14 11 8 7 5 4 4 6 6 6 8 9 8 9 10 9 9 11 13 14 15 14 14 14 15 15 16 18 19 20 20 20 21 22 22 22 23 24 24 25 25 24 25 25 25 25 25 24 24 24 24 24 24 23
20 20 20 19 19 20 17 11 11 14 14 15 17 20 22 22 21 19 17 17 18 18 19 20 21 20 18 18 18 17 14 12 10 8 7 6 6 7 7 5 4 3 3 5 8 9 9 8 10 13 14 14 14 15 16 16 16 18 19 19 19 20 20 21 22 23 23 24 24 24 25 25 25 25 26 25 25 24 24 24 24 24 24 25 25
18 17 18 18 17 16 12 11 14 16 17 18 20 22 24 24 25 26 24 23 22 20 20 19 19 18 16 15 15 15 14 12 9 8 8 8 8 6 4 3 2 2 4 4 6 9 9 8 11 12 13 14 15 16 16 17 18 19 19 19 20 21 22 23 23 23 24 25 25 25 26 26 26 26 26 26 25 25 24 24 23 23 23 23 24
19 18 18 18 15 11 13 17 18 18 19 21 23 24 23 24 27 27 26 24 23 21 20 18 16 15 15 13 12 12 13 12 11 11 10 8 5 3 2 4 5 7 8 6 7 9 9 12 13 12 13 14 16 17 18 18 19 19 20 21 21 22 23 24 24 24 25 25 25 26 26 26 26 26 26 26 25 24 24 24 23 23 22 22 23
21 21 20 17 13 13 18 21 22 22 23 25 25 25 23 23 25 25 23 23 22 20 18 17 15 13 12 12 11 11 11 11 11 11 10 7 4 4 7 9 8 4 6 7 7 8 10 13 13 13 14 15 16 17 18 19 19 20 21 22 23 24 25 25 25 25 25 25 26 26 27 27 27 27 27 26 25 24 24 23 23 23 23 22 22
21 20 17 14 15 19 21 21 23 26 27 27 26 26 25 23 23 23 22 21 20 18 16 15 13 12 11 11 11 10 10 9 8 8 7 5 2 4 6 8 9 7 4 5 7 9 11 12 12 13 14 15 16 17 18 19 21 22 23 23 24 25 25 26 26 26 26 26 27 28 28 28 28 28 27 26 26 25 25 24 24 24 24 24 23
16 14 12 15 21 23 23 23 26 27 28 28 27 26 25 24 23 22 20 18 17 16 15 14 13 12 11 10 9 8 7 6 6 5 4 4 2 2 3 5 6 8 9 9 9 10 11 11 12 13 14 15 16 17 18 20 21 22 23 24 25 25 26 27 28 28 28 28 28 28 28 28 28 27 27 26 25 25 25 25 24 24 25 25 25
15 15 17 23 27 28 27 28 29 29 29 28 26 24 23 22 21 20 19 17 16 15 14 14 14 13 12 11 9 7 6 5 5 6 6 6 5 4 4 5 7 10 10 10 11 11 11 11 12 12 13 15 16 17 18 20 21 22 24 25 26 26 27 28 28 28 28 28 28 28 28 28 28 27 27 26 26 25 25 25 25 24 24 24 24
16 20 25 30 31 32 32 32 31 30 28 26 24 23 22 21 20 18 17 16 16 14 14 14 12 11 11 10 8 7 6 7 9 10 9 8 5 1 3 7 10 11 10 10 11 11 10 11 12 12 14 15 16 17 19 20 22 24 26 26 26 26 27 27 28 28 28 28 28 29 28 28 28 28 27 27 26 26 25 25 25 25 24 23 23
27 28 30 32 33 32 32 31 29 27 25 23 22 22 20 18 17 16 15 15 14 12 12 12 9 7 9 10 8 7 6 6 5 4 4 4 4 6 7 9 10 10 10 10 11 11 11 11 12 13 14 15 16 18 20 21 24 26 27 26 26 27 28 29 29 29 29 29 29 29 29 29 28 27 26 26 26 26 25 25 26 25 25 24 23
31 31 31 32 31 29 27 26 26 25 24 22 21 19 18 16 15 14 13 12 12 10 11 12 11 9 7 7 5 4 3 2 5 8 8 9 9 9 8 8 9 10 11 11 11 11 10 11 12 13 14 16 18 20 22 23 26 27 27 27 28 28 29 29 29 29 29 29 29 28 28 28 27 26 25 26 26 26 26 26 25 25 24 22 21
31 30 29 28 26 26 25 25 24 23 22 20 17 16 15 14 11 10 9 9 10 13 17 16 13 12 9 6 4 3 2 1 4 8 8 8 9 8 8 9 10 10 10 11 11 10 9 11 12 13 15 17 20 21 23 25 28 29 28 29 29 29 30 30 30 29 29 29 28 28 28 27 26 26 26 26 25 24 24 24 23 22 20 19 18
25 25 24 23 22 22 23 22 21 19 18 17 15 14 13 10 8 9 10 11 14 17 18 15 13 14 13 10 8 6 5 5 7 10 11 9 8 8 9 10 10 9 8 10 11 9 9 11 12 13 15 19 21 21 23 26 28 29 28 29 29 30 30 30 30 30 30 29 29 29 28 26 26 25 25 24 24 23 22 21 18 17 16 16 16
21 21 21 22 23 23 23 22 21 20 19 18 16 13 12 12 13 15 16 17 17 17 15 13 11 10 11 10 8 8 10 11 11 11 10 9 8 8 9 10 10 7 7 10 11 10 10 11 12 14 17 20 20 21 24 28 29 29 28 28 29 30 30 30 30 30 30 29 28 27 26 25 24 24 23 22 21 20 19 17 14 13 12 12 12
23 23 23 23 23 23 22 21 20 19 18 18 17 16 15 15 15 16 15 15 15 14 13 12 11 9 10 10 9 9 10 11 10 9 8 7 8 8 9 9 9 7 7 10 12 11 11 12 13 16 18 20 21 23 26 29 30 30 29 29 29 29 30 30 29 29 27 25 24 23 23 23 22 21 20 19 18 17 16 13 11 10 9 8 8
24 24 23 23 22 20 19 18 17 16 16 16 15 14 14 13 14 15 14 14 13 12 12 12 11 10 10 9 8 8 8 8 8 8 7 6 7 7 7 9 8 7 7 9 11 11 11 12 14 16 18 19 21 24 27 29 30 31 31 30 29 29 28 28 27 26 24 22 20 21 21 21 19 18 17 15 14 14 12 10 7 7 6 6 7
22 22 20 19 19 18 17 16 16 17 17 16 15 14 13 13 13 14 13 13 12 12 12 12 11 10 9 8 8 8 8 7 7 7 6 7 7 6 7 8 7 6 7 9 11 11 11 13 14 16 18 20 22 24 27 30 32 32 32 31 30 29 27 26 25 24 21 19 18 19 19 18 17 16 15 14 12 10 8 6 4 3 3 3 5
19 19 18 17 16 15 15 15 15 15 15 15 14 14 13 13 13 13 12 12 12 11 11 11 11 10 9 8 8 8 8 7 7 6 6 7 7 7 7 7 7 7 8 10 11 11 12 13 15 17 19 20 21 24 28 31 32 33 32 31 29 28 27 26 25 23 20 18 18 18 17 17 16 16 15 13 11 9 6 4 2 2 3 4 6
18 17 17 16 15 14 14 13 13 13 13 13 13 14 14 14 14 13 13 12 12 12 11 11 11 10 9 9 9 9 8 8 7 7 7 7 7 7 6 7 7 7 8 9 11 12 12 13 15 17 19 19 20 24 30 32 32 32 32 30 28 27 27 27 25 22 20 18 18 18 18 18 17 16 15 14 12 10 8 7 5 7 8 9 10
18 17 16 15 15 14 13 13 13 12 12 12 13 14 14 14 14 14 13 13 13 13 12 12 11 11 10 9 9 8 8 7 7 6 6 7 7 7 7 7 7 7 8 10 11 11 12 13 15 17 19 19 20 24 30 33 31 31 31 29 26 27 28 28 25 23 20 19 19 19 19 20 19 17 16 16 15 13 12 11 10 10 12 12 13
19 18 17 15 14 14 13 13 13 13 13 14 14 14 14 14 13 13 13 13 12 12 12 11 11 10 9 9 8 7 7 7 6 6 6 7 7 8 8 7 7 8 8 10 11 11 12 14 16 17 18 18 20 24 30 32 30 29 30 28 26 25 26 27 27 25 22 20 19 19 19 20 20 19 18 17 16 15 14 14 13 13 14 14 14
Wind_Direction
178 167 166 169 169 175 180 181 186 182 177 181 178 180 190 204 229 229 210 209 212 210 209 210 215 214 210 211 210 207 204 201 199 194 193 194 191 192 189 179 179 182 175 173 169 164 159 151 156 190 36 22 13 358 341 331 312 298 286 271 284 294 291 291 290 293 301 307 307 306 306 306 306 305 302 301 299 298 296 291 289 289 289 288 288
187 170 162 163 159 160 165 174 185 186 182 184 188 197 203 213 244 254 239 224 216 215 220 223 225 224 221 218 216 213 209 207 205 200 198 198 195 195 192 186 189 188 183 184 182 179 179 170 166 180 196 319 346 345 337 340 340 328 322 325 322 318 316 309 307 306 305 306 306 304 303 302 300 300 301 300 300 300 296 292 290 289 289 289 288
163 156 159 173 168 162 165 175 183 187 191 190 184 192 205 213 235 252 254 249 234 224 231 232 228 231 233 228 225 221 215 212 211 206 204 204 200 199 197 191 193 194 187 188 192 187 183 180 179 190 205 225 267 296 318 324 330 332 328 328 322 312 305 300 296 291 290 295 301 303 304 304 301 300 299 297 297 296 295 293 291 288 286 285 286
139 142 147 174 188 185 190 195 194 194 197 200 195 193 201 208 222 238 244 248 245 237 238 237 232 234 236 233 232 229 222 218 216 211 210 211 206 203 201 197 197 199 194 192 196 191 186 189 190 195 202 200 220 262 293 307 310 325 326 321 318 315 313 309 302 299 298 300 302 302 303 303 301 300 300 298 297 296 295 295 292 290 289 288 288
118 131 134 144 160 174 186 196 204 202 197 199 194 187 187 194 213 233 236 235 241 244 243 240 237 237 238 235 234 233 229 224 220 217 216 217 214 209 205 202 201 203 199 197 198 191 185 191 196 196 199 198 206 230 249 279 303 315 317 316 313 313 314 312 309 308 305 302 301 301 301 300 298 298 298 297 296 294 292 292 291 291 290 288 288
103 113 124 131 133 137 150 171 210 214 201 199 195 189 188 193 208 224 227 223 232 248 250 243 237 240 245 244 240 237 234 228 222 219 218 221 220 214 210 210 207 205 204 200 199 195 190 193 198 200 202 202 203 217 236 253 281 295 298 304 307 308 310 309 307 305 301 297 296 297 297 296 294 294 295 295 295 295 297 295 292 288 286 286 286
111 105 106 114 121 129 140 166 216 229 215 212 212 211 216 222 226 230 231 228 230 240 245 243 243 249 253 251 246 242 241 240 235 227 220 219 221 216 213 214 211 209 207 202 200 201 200 198 199 203 206 206 206 207 211 226 250 267 277 287 294 299 303 304 303 301 299 298 295 294 294 294 293 294 295 294 292 293 295 296 296 295 293 293 294
114 111 109 111 122 138 150 166 185 207 227 221 219 227 239 248 245 240 237 235 234 237 240 240 242 247 253 256 254 247 243 242 244 245 236 226 221 217 214 213 212 211 208 203 203 203 199 197 201 204 207 210 211 209 219 251 264 261 263 271 282 294 300 301 301 299 297 296 294 294 295 295 294 295 297 297 295 295 298 303 308 309 305 301 300
105 112 118 120 128 140 147 159 167 183 215 218 214 221 230 237 238 235 234 233 235 237 238 238 237 234 240 250 252 247 242 236 235 247 254 241 225 215 212 213 212 210 206 202 203 201 197 200 205 207 214 221 220 226 253 276 273 266 270 272 272 280 289 294 297 299 299 297 295 297 298 297 297 300 304 307 306 306 307 306 303 301 300 297 294
103 109 113 113 117 136 144 157 172 187 206 214 220 223 227 229 227 227 230 234 240 243 242 243 243 240 239 243 246 246 246 243 234 235 244 241 227 214 209 211 211 209 204 200 202 202 201 207 211 213 222 230 234 249 270 278 271 273 280 276 275 280 285 289 290 292 293 292 292 294 296 294 294 300 304 306 306 306 307 307 302 298 297 294 292
114 116 113 116 134 166 145 149 219 246 240 245 249 245 246 246 238 234 236 241 247 248 245 244 245 241 236 237 243 247 247 246 242 237 238 235 224 210 201 204 208 208 203 200 203 203 201 209 219 223 229 238 248 261 273 277 280 289 289 280 279 280 280 283 284 284 284 283 283 286 289 291 294 299 302 304 307 310 313 316 316 314 309 301 297
131 130 129 129 154 146 107 232 265 269 260 268 277 273 272 273 267 264 263 261 259 253 248 246 245 244 238 234 239 245 245 245 242 238 235 231 219 205 195 198 203 203 201 200 202 204 204 211 221 228 233 240 250 260 270 278 286 292 289 283 282 281 281 282 281 279 277 275 276 277 280 286 292 295 297 300 307 312 313 313 313 314 313 308 303
151 149 152 163 173 163 245 275 280 287 281 280 289 289 283 279 277 279 279 278 275 267 260 257 254 253 250 242 237 240 242 241 237 232 228 223 214 201 194 196 196 196 199 200 202 205 207 210 217 226 235 244 252 256 262 272 280 284 280 280 285 288 288 286 283 280 275 271 269 269 273 279 284 287 288 292 300 306 307 306 307 309 312 310 306
168 163 175 196 194 220 248 256 272 293 301 299 298 294 290 288 290 290 285 281 280 273 265 263 261 258 255 250 243 239 238 236 232 227 221 215 208 199 192 192 191 194 202 204 204 206 207 210 218 227 237 247 255 258 257 259 266 278 284 286 290 292 292 291 289 285 278 271 266 266 268 271 275 279 284 287 291 293 293 297 301 303 304 300 297
196 188 196 213 241 257 252 241 247 269 283 289 291 290 291 293 293 290 285 280 279 276 269 263 261 259 257 253 249 245 238 232 229 224 215 208 203 196 190 190 190 194 202 201 199 205 214 224 231 236 243 252 258 258 256 252 256 269 281 285 287 288 288 289 289 287 284 279 275 273 273 273 273 275 278 279 278 277 281 288 293 296 297 294 291
233 231 218 224 255 265 259 252 252 260 270 276 282 284 286 289 290 287 283 278 274 274 273 268 263 260 257 253 249 246 236 226 224 219 208 202 198 191 185 182 182 186 192 194 200 213 226 235 238 244 251 258 260 259 260 263 267 275 281 284 286 286 286 289 287 284 283 282 280 280 280 279 276 274 274 273 273 277 282 285 287 289 289 287 285
243 239 227 230 249 255 255 258 258 260 264 267 273 277 279 281 281 280 280 278 273 270 271 271 269 266 263 254 244 238 226 214 213 209 201 196 192 186 180 178 178 185 194 200 212 225 233 238 241 248 255 262 268 272 274 276 278 280 282 282 284 285 287 291 290 286 284 283 282 282 282 281 279 276 276 276 275 277 280 280 281 283 281 279 278
254 251 250 254 258 254 253 257 258 260 263 266 271 275 276 277 276 275 276 276 275 272 270 271 271 267 264 255 243 235 222 206 200 195 190 188 185 179 178 179 181 192 205 214 224 231 241 249 250 252 257 263 270 274 273 274 276 278 280 283 285 286 289 294 294 291 288 283 279 278 278 279 279 279 280 279 276 274 272 272 273 274 272 270 276
267 270 271 269 267 264 262 260 258 259 261 261 264 266 268 271 272 271 272 272 272 270 267 268 268 262 254 246 239 234 217 196 188 186 184 182 179 173 171 178 186 197 209 218 226 230 243 262 265 259 256 258 262 266 267 270 272 273 278 285 288 289 291 293 292 291 289 286 284 283 282 282 283 284 284 283 280 277 273 272 271 268 265 266 273
265 265 266 265 265 263 260 257 254 253 254 255 256 258 261 265 267 267 267 268 269 271 273 265 244 207 203 214 217 219 204 182 175 180 182 178 173 165 161 169 178 187 200 216 235 248 265 279 278 267 258 258 263 267 270 275 279 282 286 289 288 287 289 289 289 291 293 293 292 290 288 287 287 286 285 283 280 277 273 272 269 263 260 262 266
261 261 261 260 259 257 257 257 256 255 254 255 256 258 261 265 265 264 265 266 264 265 265 222 160 142 156 183 185 187 185 176 170 172 173 168 164 162 157 150 148 159 174 205 254 272 290 293 282 264 257 265 271 279 287 293 296 296 297 296 294 293 295 296 298 300 299 296 294 292 291 291 290 288 287 285 282 277 273 270 268 263 259 258 260
263 262 260 259 258 257 258 258 257 258 258 257 257 260 262 265 265 263 264 262 250 199 144 143 139 133 142 163 168 170 174 171 166 165 165 163 161 166 166 159 168 204 231 265 276 278 291 295 284 264 267 285 294 303 307 307 306 305 306 307 307 307 306 304 303 303 301 297 295 294 293 293 292 290 288 285 283 281 277 273 271 268 264 260 258
264 264 263 262 261 261 260 259 258 257 257 255 255 256 258 262 263 262 260 249 185 120 117 129 128 121 122 137 156 166 167 166 164 165 166 162 160 171 185 204 235 254 267 275 276 277 284 286 282 283 295 301 306 311 313 313 312 312 313 312 311 310 306 301 298 295 292 290 288 288 287 286 285 285 285 284 284 282 281 281 280 277 274 269 264
265 265 264 264 263 262 262 261 260 258 257 254 251 249 250 255 258 258 255 238 179 140 132 135 134 128 123 132 152 162 163 163 164 165 163 159 164 185 207 229 250 268 282 281 273 272 278 281 282 287 292 298 305 311 313 315 317 316 313 311 310 308 302 298 294 289 286 284 283 281 281 280 279 277 278 279 280 280 280 281 283 282 282 280 275
263 262 263 263 262 261 260 259 257 256 254 252 250 249 250 253 255 249 229 210 202 182 157 148 149 144 137 139 152 161 163 163 162 161 164 168 178 190 193 199 220 314 341 335 311 286 279 278 279 284 291 300 306 306 303 305 310 314 315 314 310 306 301 295 288 282 280 281 280 278 279 280 280 281 281 279 278 277 276 277 278 279 280 282 281
263 262 263 263 263 263 264 263 262 261 258 255 253 255 254 243 216 209 203 203 212 203 175 158 153 149 145 146 152 160 165 166 164 166 169 168 163 158 151 157 217 297 321 326 312 291 282 283 285 291 299 305 303 296 293 295 300 310 319 318 310 304 299 291 284 283 285 287 288 286 285 286 286 286 286 282 278 277 275 275 276 276 276 278 279
264 262 263 266 265 264 264 266 268 268 269 270 268 265 260 208 185 194 198 199 201 189 172 163 157 151 147 148 151 156 161 163 165 166 163 158 160 172 201 239 271 288 294 302 305 303 302 302 303 307 312 311 304 297 293 293 301 312 321 322 316 310 307 302 300 299 297 296 296 294 294 294 293 290 288 284 282 281 280 278 276 275 275 275 274
270 265 263 264 264 263 264 266 267 265 266 269 268 254 181 168 178 182 189 201 203 189 175 167 163 158 154 153 152 152 154 159 164 166 167 171 174 169 171 169 139 331 307 312 317 317 321 328 330 321 314 317 324 326 322 322 323 324 322 319 316 313 311 311 310 306 302 300 299 299 299 298 296 294 293 291 289 288 287 283 279 276 275 273 269
275 272 265 261 261 262 259 259 262 261 250 204 183 166 157 163 167 172 194 214 215 196 177 165 160 158 154 153 153 149 148 150 156 163 170 174 169 159 158 155 50 6 349 341 342 350 355 343 331 325 328 337 344 342 337 333 329 325 321 317 315 313 310 308 305 302 300 298 296 295 295 294 293 292 292 290 288 288 287 285 282 280 279 274 268
263 262 259 256 253 251 252 253 252 238 185 151 145 139 139 152 160 169 194 210 208 189 169 158 157 154 149 148 152 153 151 147 147 154 156 148 144 134 98 76 54 36 28 16 4 2 351 328 326 340 349 348 343 336 331 327 324 322 320 317 315 312 308 303 299 297 296 296 295 295 295 294 292 291 288 286 284 283 282 280 279 280 280 278 275
255 252 251 248 244 244 246 238 208 177 154 143 138 128 118 120 127 135 156 173 173 164 154 152 155 154 149 144 142 144 144 140 136 136 128 109 99 96 90 87 76 53 42 33 15 358 331 317 335 352 351 342 336 330 328 326 322 318 315 312 309 307 304 301 298 297 298 298 297 296 295 293 292 290 288 285 283 281 280 277 275 274 273 273 273
261 258 253 248 243 241 237 211 165 150 138 132 136 132 122 114 111 113 122 135 141 141 142 145 148 148 147 144 137 133 131 128 123 114 101 93 100 107 109 111 109 78 29 23 12 348 321 323 351 355 344 335 332 329 328 325 320 315 311 307 305 304 303 301 300 299 297 296 295 294 293 292 291 290 288 286 283 281 279 276 273 270 269 268 266
268 268 265 259 250 238 217 176 154 147 137 132 134 134 129 123 116 112 113 118 122 127 132 137 139 136 132 131 132 131 126 119 109 100 101 108 111 117 140 172 185 251 291 328 333 315 317 352 7 352 338 333 331 329 328 324 319 315 312 308 307 307 304 303 301 298 295 293 292 292 291 290 290 289 287 285 282 279 276 274 272 269 266 264 263
263 263 262 260 249 216 173 155 153 147 139 137 138 137 135 132 125 119 115 115 115 117 121 126 130 129 126 126 130 129 122 113 104 103 107 108 97 75 342 311 289 262 261 279 292 297 327 2 3 347 339 337 334 331 329 324 320 318 314 311 309 307 305 304 302 299 296 294 292 291 289 289 289 288 287 284 281 277 274 272 271 268 264 262 262
254 256 256 250 225 180 157 154 156 149 141 140 140 138 138 136 130 125 122 118 115 114 117 122 128 131 136 139 138 134 128 120 112 110 109 99 71 40 11 351 337 288 244 260 284 313 346 359 354 345 342 338 332 329 326 323 321 319 315 312 309 307 307 306 303 300 298 296 293 291 290 290 289 287 285 283 280 277 274 272 270 267 264 263 263
244 244 240 218 183 162 153 152 151 145 141 140 138 138 138 133 126 123 121 120 119 119 122 129 134 137 145 148 144 143 143 136 128 125 123 118 82 38 19 358 359 18 16 327 327 346 356 355 349 345 342 335 328 326 324 322 321 318 314 312 310 308 307 305 302 300 299 297 295 294 292 291 289 287 285 283 279 276 274 273 271 268 263 262 262
234 224 198 165 152 146 143 143 142 138 137 137 136 134 132 128 125 124 124 124 126 127 132 142 147 149 156 160 158 159 161 158 163 172 173 186 219 322 337 321 344 13 13 357 356 1 358 351 347 344 339 332 326 324 323 322 321 318 315 313 310 307 306 304 302 300 298 296 295 295 293 291 290 288 285 283 281 278 275 273 271 269 265 262 261
207 190 165 149 143 139 138 138 137 134 133 134 133 130 129 130 131 131 132 135 138 140 147 159 165 168 172 171 166 169 180 197 216 230 238 239 241 267 305 326 2 17 8 358 1 3 356 349 347 344 338 331 327 326 325 323 320 319 318 315 312 309 307 305 302 301 299 296 295 295 294 292 291 289 287 284 282 279 277 274 271 269 266 263 259
142 145 142 138 135 133 132 132 130 130 132 134 133 131 130 131 133 134 139 146 152 156 163 168 173 181 186 181 171 178 208 239 255 262 266 262 251 273 4 11 16 14 4 358 0 359 352 349 347 341 335 331 330 329 326 323 322 323 321 319 316 313 310 307 304 302 299 297 295 296 295 293 292 290 288 285 281 278 276 274 271 268 265 261 257
99 106 113 117 118 120 123 125 126 127 128 129 128 127 127 129 134 139 146 155 165 170 168 161 154 158 174 179 179 191 219 255 293 328 347 359 30 48 37 22 13 11 10 7 0 354 352 350 345 337 332 330 330 328 326 325 327 326 323 321 318 315 312 310 306 302 300 299 298 297 296 294 293 292 289 285 283 280 277 275 273 269 266 262 259
93 95 99 103 107 109 113 115 116 118 120 121 124 127 130 134 141 147 156 172 182 169 144 130 119 115 135 159 171 183 219 321 25 46 48 41 40 42 31 16 11 16 16 6 356 353 353 348 341 336 332 328 327 325 326 329 330 327 323 320 317 315 313 312 309 306 304 302 300 299 298 297 295 294 291 289 289 286 282 280 277 273 268 263 258
99 101 103 104 105 106 109 113 117 122 126 129 132 137 141 146 154 160 168 182 174 145 128 117 102 86 82 89 99 113 149 27 48 63 65 54 41 35 25 16 17 22 17 2 354 354 351 344 340 336 332 331 331 331 331 332 332 329 325 321 318 316 314 313 312 310 308 307 305 304 303 303 302 300 299 297 296 292 288 286 283 277 270 264 257
104 106 107 107 107 109 115 120 122 124 129 134 142 151 155 151 139 119 103 98 105 111 111 104 89 75 68 72 77 68 56 59 64 64 60 49 33 29 28 19 15 18 15 1 353 351 345 341 339 335 333 335 337 338 340 340 337 332 327 324 322 321 319 317 316 315 314 312 312 311 311 311 309 307 306 304 302 298 297 296 290 279 269 262 255
90 90 93 95 97 100 104 105 103 99 100 105 111 115 115 105 93 87 82 80 82 86 86 86 86 79 70 73 72 55 50 58 61 55 47 35 21 25 27 14 4 10 14 1 352 349 345 340 337 335 337 339 339 340 343 344 342 337 332 329 327 326 324 322 322 321 320 319 318 319 319 318 316 314 313 312 310 307 306 304 296 281 269 259 248
76 76 78 80 82 84 86 88 89 87 87 89 88 87 86 85 82 82 82 80 80 82 83 83 84 79 72 71 68 57 54 57 55 49 41 27 16 20 18 3 356 10 17 0 349 345 344 341 339 341 343 344 343 344 346 347 345 342 339 337 333 331 331 331 331 332 332 331 330 329 328 326 326 326 326 325 322 318 315 310 300 286 273 259 244
73 74 74 75 77 78 79 82 85 85 84 84 83 81 81 82 82 84 86 84 83 86 87 82 78 74 69 65 65 64 61 57 54 49 36 21 20 24 14 359 358 12 15 359 348 346 345 342 343 346 347 347 347 349 350 351 349 346 345 344 343 342 343 344 345 345 346 345 344 343 340 338 339 340 338 336 335 331 325 316 303 285 268 253 239
74 74 74 76 78 80 81 83 86 86 84 82 84 85 85 86 86 86 85 82 81 82 81 78 75 73 67 61 66 71 67 58 55 49 34 25 28 25 7 357 3 17 17 3 352 347 342 340 344 350 351 350 351 353 354 354 353 351 351 353 354 355 356 356 354 353 353 354 356 355 352 352 354 354 351 349 350 348 339 322 306 284 255 233 212
73 74 74 75 76 77 79 79 81 83 82 81 81 83 83 83 82 79 77 76 76 76 76 76 75 74 69 61 59 61 61 55 51 45 31 22 19 14 5 3 8 14 13 4 355 348 343 341 346 353 354 353 354 357 357 357 357 356 357 359 1 3 5 4 1 359 360 3 7 8 7 6 8 9 8 7 8 13 13 1 2 95 113 131 145
70 70 71 73 72 73 77 78 79 82 82 79 77 77 75 74 72 69 68 69 66 65 66 68 67 67 66 59 53 52 54 50 43 37 27 16 11 11 13 11 9 11 12 5 357 350 343 341 347 354 357 357 357 357 358 0 1 0 360 1 4 7 9 9 6 4 6 11 17 21 22 21 22 23 26 27 30 38 48 53 68 94 105 112 120
67 66 68 71 71 71 73 75 75 77 78 77 76 73 70 68 65 62 62 63 60 57 57 58 57 57 56 53 50 48 48 44 37 30 22 14 11 12 13 11 13 19 21 12 2 351 343 344 348 353 356 359 358 355 357 1 3 2 1 2 4 9 12 13 12 10 12 18 25 29 31 32 33 33 35 39 44 51 60 68 77 90 99 103 107
66 66 65 66 68 69 70 69 68 67 68 69 71 69 66 65 63 60 59 59 57 53 52 52 52 52 50 48 47 46 44 40 34 27 22 18 13 12 12 10 9 11 14 11 4 353 348 352 355 354 356 358 356 352 355 0 3 3 3 4 6 10 16 19 19 18 18 22 29 33 35 37 39 39 39 44 50 55 62 71 79 87 94 99 104
Height
774 775 777 779 781 783 786 788 790 792 793 795 796 799 801 804 806 806 806 807 807 807 808 809 809 810 810 811 811 812 812 813 814 814 814 815 815 816 816 817 818 818 819 819 820 820 821 822 822 822 823 823 823 824 824 825 825 824 825 825 825 825 825 824 824 822 820 821 820 819 819 818 817 817 816 815 814 814 813 813 812 811 811 810 809
776 776 777 779 781 783 785 787 789 791 793 795 796 798 800 803 806 807 807 807 806 806 807 808 809 810 810 810 811 811 811 812 812 813 813 814 814 815 815 816 817 817 818 818 819 820 820 821 822 822 822 823 823 823 824 824 824 824 824 825 824 825 824 824 824 822 820 820 819 819 818 817 816 815 815 814 813 812 811 811 810 809 809 808 807
775 776 777 780 781 782 784 786 787 789 792 795 795 797 799 801 804 806 807 807 806 806 806 806 808 809 810 810 810 810 810 811 811 812 812 813 813 813 814 814 816 816 816 817 818 819 819 820 821 821 822 822 823 823 823 824 824 824 824 824 824 824 824 824 823 822 820 819 818 818 817 816 815 814 814 813 811 811 809 809 808 807 807 806 806
773 774 777 780 782 783 785 786 787 787 790 792 793 795 797 798 801 804 806 806 806 806 805 805 805 806 808 809 809 810 810 810 810 811 812 812 812 813 813 814 815 815 815 816 817 817 818 819 820 820 820 821 822 822 823 823 823 823 823 823 823 823 823 822 822 821 820 818 818 817 816 815 814 813 812 811 810 809 808 807 807 806 805 805 804
775 775 777 780 783 784 785 786 788 788 788 789 790 792 794 795 799 802 803 804 804 805 804 803 802 803 804 806 807 808 808 809 809 810 811 812 813 813 813 813 814 814 814 815 816 816 817 818 819 819 819 820 820 821 821 821 821 822 822 822 822 822 821 821 821 820 819 818 817 816 816 815 814 813 812 810 809 808 807 806 805 804 804 803 802
777 777 777 778 781 784 784 786 788 789 788 788 788 790 791 793 795 798 799 799 801 803 802 800 800 801 802 804 805 806 807 807 807 808 810 812 812 813 813 814 814 814 814 814 815 815 816 817 818 818 819 819 819 820 820 820 820 821 821 821 821 821 821 820 820 820 819 818 816 815 815 814 813 811 811 810 808 806 805 804 804 803 802 801 800
778 778 778 778 781 783 784 786 787 788 788 787 788 789 791 792 793 794 796 796 797 799 799 799 799 800 801 803 804 805 806 807 807 807 808 809 811 811 812 813 813 813 813 813 814 814 815 816 816 817 818 818 819 819 819 819 820 820 820 820 820 820 820 820 820 819 818 817 816 815 813 813 812 810 809 809 807 806 805 803 802 801 800 799 798
778 779 779 780 782 783 785 786 786 787 787 786 787 788 790 791 792 792 794 794 795 796 796 796 797 798 800 802 803 803 804 805 806 807 808 808 808 809 810 811 811 812 812 812 813 813 814 815 816 816 817 817 818 818 818 818 819 819 819 819 819 819 819 819 819 819 818 816 815 814 812 811 810 809 808 808 806 805 804 802 800 799 799 798 797
779 780 780 782 783 784 785 785 785 786 786 786 787 787 788 790 790 791 792 793 793 794 794 794 794 795 796 799 802 802 800 800 801 804 807 808 807 807 808 809 810 811 812 812 813 813 813 814 815 815 816 816 817 817 817 818 817 817 817 818 818 818 818 818 818 817 817 816 814 813 812 810 809 808 808 807 806 804 803 802 800 798 797 796 795
779 780 781 782 783 783 784 784 784 785 785 786 786 787 788 788 789 790 790 791 791 791 792 792 793 793 794 796 799 799 798 798 797 799 803 805 805 805 806 808 809 810 811 811 812 812 812 813 814 814 815 815 815 816 816 816 816 816 816 816 816 817 817 817 817 816 816 815 813 812 811 809 809 808 807 806 806 804 803 802 800 797 796 794 792
779 780 780 781 782 782 783 783 784 784 785 785 786 786 787 788 788 788 788 788 789 789 789 790 790 791 792 793 795 796 795 795 795 797 799 802 803 802 803 805 808 809 810 810 811 811 812 812 812 813 813 814 814 815 815 815 815 815 815 815 815 815 815 815 815 815 814 813 812 812 810 809 808 808 807 806 805 803 802 801 799 797 796 793 791
779 780 780 781 781 782 782 783 783 784 784 785 786 786 786 787 787 787 787 787 787 787 787 788 788 790 790 791 791 792 792 792 793 795 797 799 800 799 801 803 805 807 808 809 810 810 810 811 811 811 812 812 813 813 813 813 813 813 813 813 814 814 814 814 813 813 812 811 810 810 809 808 807 807 806 805 803 802 801 800 799 797 796 794 791
779 779 780 781 781 781 782 783 783 784 784 785 785 785 786 786 786 786 786 786 786 786 786 786 787 788 788 788 788 788 788 789 790 792 794 797 798 798 799 801 803 805 807 807 809 809 809 810 810 811 811 811 811 812 812 812 812 812 812 812 812 812 812 812 811 811 810 809 808 807 807 807 806 805 805 804 802 801 800 799 798 797 795 794 791
778 778 779 780 780 781 782 782 783 783 783 784 784 784 785 784 784 784 784 785 785 785 785 785 785 786 786 786 786 786 786 787 788 790 792 794 795 796 798 800 801 804 805 806 807 808 808 809 809 810 810 810 810 811 811 811 810 810 810 810 810 810 810 810 809 808 808 807 806 805 805 805 804 803 803 803 801 800 799 798 797 796 794 793 790
777 778 779 779 780 780 781 781 782 782 783 783 783 783 784 783 783 783 783 783 784 784 784 784 784 784 784 784 785 784 784 785 787 788 789 791 793 794 796 799 800 803 804 805 805 806 807 808 808 809 809 809 809 809 809 809 809 808 809 809 808 808 808 808 807 806 805 804 803 802 801 802 801 800 801 801 800 798 798 797 796 795 793 791 788
776 777 778 778 779 779 779 780 781 781 782 782 782 783 783 782 782 782 782 782 783 782 783 782 782 782 782 782 782 782 783 784 785 786 788 789 791 792 794 797 800 801 802 803 804 805 806 807 807 807 807 807 807 807 807 807 807 807 807 806 806 806 805 805 805 804 803 802 801 800 799 799 799 798 798 798 797 796 795 794 794 793 791 788 786
776 776 777 777 777 778 778 779 780 780 781 781 781 781 781 781 781 781 781 781 781 781 781 780 780 780 780 780 780 780 781 783 784 786 787 788 790 791 792 795 798 800 802 803 804 805 806 806 806 806 806 806 805 805 806 805 805 805 804 804 804 803 802 802 802 801 801 800 799 798 797 796 796 795 795 795 794 794 793 790 790 791 790 786 783
775 775 776 776 776 777 777 778 778 779 779 779 780 780 780 780 780 780 780 779 779 779 779 778 778 778 777 777 777 778 780 782 783 786 787 788 790 791 792 795 798 800 801 802 803 804 805 805 805 805 805 804 804 804 804 803 803 803 802 802 801 800 800 800 799 798 798 797 796 795 794 793 792 791 791 790 790 791 790 787 787 788 786 784 782
774 774 775 775 775 776 776 776 777 777 778 778 778 778 779 779 779 778 778 778 777 777 777 777 776 775 775 775 776 777 779 781 783 786 787 788 790 791 793 795 797 799 800 802 802 803 804 804 803 803 803 802 802 802 801 801 801 801 801 800 799 798 798 797 796 795 794 793 792 791 790 790 789 788 788 787 787 787 786 784 785 785 783 781 781
773 774 774 774 775 775 775 775 775 775 776 776 777 777 777 777 777 777 776 776 776 775 775 774 774 773 774 774 775 777 779 781 783 785 787 788 790 792 794 795 797 798 799 800 801 802 802 802 801 801 801 800 800 800 800 800 800 799 799 798 797 796 796 794 793 792 791 789 788 788 787 787 786 785 785 784 784 784 783 782 782 781 780 778 779
771 772 772 772 773 773 772 773 773 773 774 774 774 775 775 775 775 775 775 775 774 774 773 772 772 773 774 775 776 778 779 781 783 785 787 789 790 791 793 795 796 797 798 799 800 801 802 801 800 800 800 799 799 799 799 799 798 797 797 796 795 794 793 791 790 789 788 787 786 785 784 784 783 783 782 781 781 780 780 779 778 778 777 776 775
769 770 770 770 770 770 770 770 770 771 771 772 772 773 773 773 774 773 773 773 772 772 772 772 772 773 774 775 777 778 780 781 783 785 787 789 790 791 793 795 796 797 798 799 800 800 801 801 799 799 799 798 798 798 797 797 796 795 795 794 793 792 791 789 788 787 786 785 784 783 783 782 781 781 780 779 778 778 777 776 775 775 774 773 772
767 767 767 768 768 768 768 768 768 768 769 769 770 770 771 771 771 771 772 771 771 771 772 773 773 774 775 776 778 779 781 783 784 785 787 789 791 792 794 796 797 798 799 799 799 800 801 800 799 798 797 797 797 797 796 795 794 793 793 792 791 790 789 788 786 785 784 784 783 782 781 780 779 778 778 777 776 776 775 774 773 772 771 770 769
766 765 765 765 765 765 765 765 766 766 766 767 767 767 768 769 769 769 770 770 770 771 772 773 774 775 777 778 779 781 782 783 785 787 788 790 791 793 794 796 797 797 798 798 798 799 799 799 797 796 796 796 796 795 794 794 793 792 791 790 789 788 787 786 785 784 783 782 781 780 779 778 777 776 776 775 774 773 772 771 770 769 768 767 766
763 762 762 762 762 763 763 763 763 763 763 764 764 764 765 766 766 767 768 769 770 771 772 773 774 775 777 779 780 782 783 784 786 788 789 790 792 793 794 795 796 797 797 798 798 798 797 797 796 795 794 794 794 793 792 792 791 790 789 789 787 786 785 784 783 782 781 780 779 778 777 776 775 774 773 772 771 770 770 769 768 767 766 764 763
760 759 760 760 760 760 760 760 760 760 760 761 761 762 763 763 764 766 767 768 770 770 772 773 774 775 777 779 780 782 783 785 787 788 789 791 792 793 794 794 795 796 796 796 796 796 795 795 794 793 793 792 791 791 790 789 789 789 788 787 786 785 784 783 782 781 780 778 777 776 775 774 773 772 771 770 768 768 767 766 765 764 763 762 760
757 757 757 757 757 758 758 758 758 758 758 759 759 760 760 761 763 764 766 767 769 769 771 772 773 775 777 779 781 782 783 785 787 788 790 791 792 793 793 794 794 795 795 795 795 794 794 793 792 792 791 790 789 789 788 788 788 787 787 786 785 784 783 782 781 780 778 777 775 774 773 772 770 769 768 767 766 765 765 764 762 761 761 760 758
754 754 754 755 755 755 756 756 756 756 757 757 757 758 759 761 762 764 765 767 767 768 769 771 772 774 776 778 780 782 784 786 787 788 789 791 792 792 793 793 794 794 794 794 793 793 792 792 791 790 790 789 789 788 787 787 787 786 786 785 785 784 783 781 780 779 777 776 774 772 771 770 769 767 766 765 764 763 762 761 760 759 758 757 755
752 751 752 752 752 753 754 753 754 755 755 755 756 757 759 760 761 763 765 766 766 767 768 770 772 774 776 778 780 781 784 785 787 788 789 790 791 791 792 792 793 793 793 793 792 792 791 790 790 790 789 788 788 787 787 787 786 786 785 784 784 783 781 780 779 777 776 774 772 771 769 768 766 765 764 762 761 760 760 759 757 756 755 754 752
749 749 749 749 749 750 751 751 751 752 753 754 755 757 758 759 761 762 763 765 766 767 769 771 772 774 776 779 780 781 783 785 787 788 789 790 790 791 791 791 792 792 792 792 792 791 790 790 789 789 789 788 788 787 787 786 786 785 784 783 782 781 780 778 777 775 774 772 771 769 767 765 764 763 761 759 758 757 757 756 755 754 753 751 749
745 745 745 746 746 747 748 748 749 750 751 753 754 756 758 760 761 763 764 765 767 768 769 771 773 775 777 779 780 782 784 785 787 788 789 789 790 790 790 791 791 792 792 791 791 791 790 789 789 789 789 788 788 787 787 786 785 784 783 781 780 779 778 776 775 773 772 770 768 767 765 763 761 760 758 756 755 754 753 752 751 751 750 748 747
741 741 742 742 742 743 744 746 748 749 751 753 755 757 759 761 762 764 766 767 768 769 771 773 775 777 778 779 781 783 785 786 787 788 788 789 789 790 790 790 791 791 790 790 790 790 789 789 789 789 789 788 788 787 786 785 784 782 781 780 778 777 776 774 773 771 770 768 766 764 762 761 759 757 755 753 752 750 749 748 748 747 746 745 744
738 739 739 739 741 741 741 744 747 748 749 752 755 757 759 761 762 765 767 769 770 772 774 775 777 778 780 781 782 783 785 786 787 788 788 789 789 790 790 790 790 790 790 790 789 789 789 789 788 788 788 788 787 786 785 784 783 781 780 778 777 775 774 772 770 769 767 765 763 762 759 758 756 754 752 750 749 747 746 744 744 743 742 740 739
736 736 737 738 739 739 739 742 745 747 749 752 754 756 759 761 762 764 766 769 771 774 776 778 779 780 781 782 783 785 786 787 787 788 788 789 789 789 789 789 789 789 789 789 789 789 789 788 788 788 788 787 786 785 784 783 782 780 779 777 775 773 772 770 768 766 764 762 760 758 756 755 753 751 748 747 745 743 742 740 740 739 738 736 735
733 734 734 735 736 737 738 740 742 745 748 751 753 757 761 762 762 764 766 768 771 774 777 779 780 781 782 783 784 786 786 787 787 788 788 788 788 788 788 788 788 788 788 789 789 788 788 788 787 787 787 787 786 785 784 782 781 779 777 776 773 771 769 767 765 763 761 759 757 755 753 751 749 747 745 743 741 740 738 736 736 735 733 733 731
729 731 732 732 733 736 738 739 741 743 747 750 754 758 761 763 763 764 767 769 771 774 777 779 781 782 783 784 785 786 786 787 787 787 788 788 788 788 788 788 788 788 788 789 788 788 788 787 787 787 787 786 786 784 783 782 780 778 776 774 771 769 767 764 762 760 758 756 754 751 749 747 745 743 741 739 737 736 734 732 731 730 729 729 728
726 728 729 730 732 735 738 741 743 745 748 752 755 758 760 763 764 766 769 771 773 775 777 779 781 782 783 784 785 785 786 786 787 787 787 787 787 787 788 788 788 788 788 788 788 787 787 787 787 787 787 786 785 784 782 781 779 777 775 772 770 767 765 762 760 757 755 753 750 748 746 744 741 740 738 735 733 731 730 728 727 726 725 724 723
724 726 727 729 732 735 738 742 745 748 750 754 758 759 761 764 766 769 771 773 774 776 778 779 781 782 783 784 784 785 785 786 786 786 786 787 787 787 787 787 787 787 787 788 787 787 787 787 787 787 786 785 784 783 781 780 778 775 773 770 768 765 762 759 757 754 752 749 747 744 742 740 738 736 734 732 729 727 725 724 723 721 720 719 719
723 725 727 729 732 735 739 743 747 750 754 757 760 761 764 766 768 770 772 773 774 776 778 779 781 782 783 783 784 785 785 785 785 785 785 786 787 787 787 787 787 787 787 788 788 787 788 787 787 786 786 785 783 782 780 778 776 774 771 768 765 762 759 756 754 751 748 746 743 741 739 736 734 732 730 728 725 723 721 720 719 717 716 715 714
726 728 730 731 735 739 742 746 750 753 757 760 761 763 766 768 769 771 772 773 774 776 778 780 781 782 783 784 784 785 785 785 785 785 786 786 787 787 787 787 788 787 787 788 788 788 788 787 786 786 785 784 782 781 779 777 775 772 769 766 763 760 757 754 751 748 745 743 740 737 735 732 730 728 726 724 721 719 718 716 714 713 712 711 710
732 735 737 739 741 744 747 751 753 756 759 762 763 765 768 769 770 772 772 773 774 777 779 780 781 782 783 784 784 784 785 785 785 785 786 786 787 787 787 788 788 787 788 788 788 788 788 787 786 786 784 783 781 779 777 775 773 770 767 764 761 757 754 751 748 745 742 739 737 734 731 729 727 724 722 720 717 715 713 711 710 708 707 707 706
740 742 744 746 748 750 752 755 757 760 762 764 766 767 769 770 771 773 773 774 775 778 779 780 781 782 783 783 783 784 784 785 786 786 786 787 788 788 788 789 788 787 788 789 789 788 788 787 786 785 784 782 780 778 776 774 771 768 765 762 759 755 752 749 745 742 739 736 733 730 728 725 723 720 718 715 713 711 709 707 706 705 704 704 704
747 749 750 751 753 755 757 759 761 763 765 766 768 769 771 772 773 774 774 774 776 778 779 780 781 781 782 783 783 784 785 785 786 786 787 788 788 789 789 788 788 788 789 790 789 788 788 787 786 785 783 782 780 778 775 773 770 767 764 760 757 753 750 746 743 740 736 733 730 727 724 722 719 717 714 712 710 708 706 705 703 702 702 702 701
752 753 754 755 756 758 760 761 763 765 766 767 769 771 772 773 774 774 774 775 775 777 778 780 781 782 783 784 784 784 785 786 786 786 787 788 789 789 789 788 788 788 789 790 789 789 788 787 786 784 783 781 779 777 775 772 769 766 763 759 755 752 748 744 741 737 734 730 727 724 722 719 717 714 712 710 708 706 704 703 702 701 700 700 700
755 756 757 758 759 761 763 764 765 767 768 769 771 772 773 774 774 774 775 776 777 778 779 781 782 783 784 784 785 785 786 786 787 787 788 789 790 789 789 788 788 789 789 790 790 789 788 787 786 784 782 780 778 776 773 771 768 765 761 758 754 750 747 743 739 735 732 729 725 723 720 718 715 713 710 708 706 704 703 701 700 700 699 699 699
759 760 761 762 763 765 766 768 769 770 771 772 773 774 775 775 776 776 777 778 779 780 781 782 783 783 784 785 786 787 787 788 788 788 789 790 790 790 789 788 788 789 790 790 790 789 788 787 786 783 781 779 777 775 772 770 767 764 760 757 753 750 746 742 738 734 731 727 724 722 719 717 714 712 709 707 705 703 702 700 700 699 698 698 698
764 765 766 767 768 769 770 771 772 773 774 775 776 776 777 778 778 779 779 780 781 781 782 782 783 784 785 787 787 788 788 788 788 789 790 791 790 789 789 789 789 789 789 790 790 789 788 787 785 783 781 779 777 775 772 769 766 763 759 755 752 749 745 741 738 734 730 727 724 722 719 716 714 711 709 707 705 703 701 700 699 698 698 698 698
769 770 771 771 772 773 774 775 775 776 777 777 778 778 779 780 780 780 781 781 782 783 783 784 784 785 787 788 788 788 788 789 789 790 791 791 790 789 789 789 789 789 789 789 789 789 788 786 784 782 781 779 777 775 772 769 765 762 759 755 752 749 745 741 737 734 731 728 725 722 719 716 714 712 709 707 705 703 702 701 700 699 698 698 698
772 773 773 774 775 776 777 777 778 779 779 780 780 780 781 781 781 782 783 783 784 784 785 785 785 787 788 788 789 789 789 789 789 790 791 791 790 790 789 789 789 789 789 789 789 789 787 786 784 782 781 779 777 775 772 769 765 762 759 755 752 749 745 741 738 735 731 728 725 722 720 717 715 713 711 708 706 705 703 702 701 701 700 700 700
775 776 776 777 778 778 779 780 780 781 781 782 782 782 783 783 783 784 784 785 785 786 786 786 787 788 788 789 789 789 790 790 791 791 791 791 791 790 790 790 790 789 789 789 789 788 787 785 783 782 781 779 777 775 772 769 766 763 760 756 753 750 746 742 739 735 732 729 726 723 721 719 717 714 712 710 709 707 706 704 704 703 703 703 703
777 778 779 780 780 781 781 782 782 783 783 783 783 784 784 785 786 786 786 787 787 787 788 788 788 789 790 790 790 790 790 791 791 791 791 791 791 790 790 790 790 789 789 789 788 788 787 785 783 782 781 780 778 775 773 770 767 764 760 757 754 751 747 744 741 737 734 731 728 725 723 721 719 717 715 713 711 710 709 707 706 706 706 706 706